Weather History for KLNK - February, 2013

Change the Weather History Date:

Monday, February 18, 2013

  Actual Average Record
Temperature  
Mean Temperature 33 °F 30 °F  
Max Temperature 43 °F 41 °F 70 °F (1930)
Min Temperature 23 °F 19 °F -17 °F (1978)
Degree Days  
Heating Degree Days 32 35  
Month to date heating degree days 567 675  
Since 1 July heating degree days 4222 4372  
Cooling Degree Days 0 0  
Month to date cooling degree days 0 0  
Year to date cooling degree days 0 0  
Moisture  
Dew Point 24 °F    
Average Humidity 65    
Maximum Humidity 85    
Minimum Humidity 45    
Precipitation  
Precipitation 0.02 in 0.03 in 0.84 in (1984)
Month to date precipitation 0.09 0.47  
Year to date precipitation 0.82 1.11  
Snow  
Snow 0.10 in 0.20 in - ()
Month to date snowfall 0.3 3.8  
Since 1 July snowfall 11.6 17.9  
Snow Depth 0.00 in    
Sea Level Pressure  
Sea Level Pressure 29.84 in    
Wind  
Wind Speed 15 mph (NNW)    
Max Wind Speed 31 mph    
Max Gust Speed 38 mph    
Visibility 9 miles    
Events Rain , Snow    
T = Trace of Precipitation, MM = Missing Value Source: NWS Daily Summary

Daily Weather History Graph

Daily Weather History Graph

Search for Another Location

Airport or City:

Trip Planner

Search our weather history database for the weather conditions in past years. The results will help you decide how hot, cold, wet, or windy it might be!

Date:

Astronomy

Feb. 18, 2013 Rise Set
Actual Time 7:16 AM CST 6:05 PM CST
Civil Twilight 6:48 AM CST 6:33 PM CST
Nautical Twilight 6:16 AM CST 7:05 PM CST
Astronomical Twilight 5:45 AM CST 7:37 PM CST
Moon 11:51 AM CST (2/18) 1:58 AM CST (2/18)
Length of Visible Light 11h 44m
Length of Day
10h 48m
First Quarter, 58% of the Moon is Illuminated
Feb 18
First Quarter
Feb 25
Full
Mar 4
Last Quarter
Mar 11
New
Mar 19
First Quarter

Hourly Weather History & Observations

Time (CST) Temp. Windchill Dew Point Humidity Pressure Visibility Wind Dir Wind Speed Gust Speed Precip Events Conditions
12:54 AM 34.0 °F - 28.0 °F 79% 29.56 in 10.0 mi Calm Calm - N/A   Clear
1:54 AM 37.9 °F 32.7 °F 30.0 °F 73% 29.59 in 10.0 mi North 6.9 mph - N/A   Clear
2:54 AM 30.9 °F 26.2 °F 27.0 °F 85% 29.58 in 10.0 mi North 4.6 mph - N/A   Clear
3:54 AM 39.0 °F 30.3 °F 30.9 °F 73% 29.58 in 10.0 mi North 16.1 mph - N/A   Clear
4:54 AM 37.9 °F 27.9 °F 30.9 °F 76% 29.60 in 10.0 mi North 19.6 mph - N/A   Clear
6:54 AM 35.1 °F 27.4 °F 28.9 °F 78% 29.67 in 10.0 mi North 10.4 mph - N/A   Clear
7:54 AM 35.6 °F 29.9 °F 30.2 °F 81% 29.68 in 10.0 mi North 6.9 mph - N/A   Mostly Cloudy
8:03 AM 35.6 °F 29.9 °F 30.2 °F 81% 29.69 in 10.0 mi North 6.9 mph - N/A   Overcast
8:54 AM 37.9 °F 27.6 °F 28.9 °F 70% 29.73 in 10.0 mi North 20.7 mph 25.3 mph N/A   Overcast
9:54 AM 36.0 °F 25.3 °F 30.0 °F 79% 29.77 in 8.0 mi NNW 19.6 mph 31.1 mph 0.00 in Rain Light Rain
9:56 AM 35.6 °F 24.2 °F 30.2 °F 81% 29.75 in 2.5 mi NNW 21.9 mph 31.1 mph 0.00 in Snow Light Snow
10:11 AM 33.8 °F 23.2 °F 30.2 °F 87% 29.77 in 2.5 mi NNW 17.3 mph - 0.00 in Snow Light Snow
10:20 AM 33.8 °F 23.2 °F 30.2 °F 87% 29.77 in 1.2 mi NNW 17.3 mph - 0.02 in Snow Light Snow
10:25 AM 33.8 °F 23.2 °F 32.0 °F 93% 29.77 in 1.8 mi NNW 17.3 mph - 0.02 in Snow Light Snow
10:27 AM 33.8 °F 23.9 °F 32.0 °F 93% 29.77 in 2.5 mi NNW 15.0 mph - 0.02 in Snow Light Snow
10:35 AM 35.6 °F 25.2 °F 32.0 °F 87% 29.78 in 6.0 mi NNW 18.4 mph - 0.02 in Snow Light Snow
10:54 AM 34.0 °F 21.0 °F 28.0 °F 79% 29.81 in 10.0 mi NNW 26.5 mph 34.5 mph 0.02 in   Overcast
11:54 AM 33.1 °F 19.8 °F 26.1 °F 75% 29.86 in 10.0 mi NNW 26.5 mph 33.4 mph N/A   Overcast
12:54 PM 32.0 °F 19.5 °F 24.1 °F 73% 29.89 in 9.0 mi NW 21.9 mph 31.1 mph N/A   Overcast
1:54 PM 30.9 °F 17.8 °F 21.0 °F 67% 29.91 in 10.0 mi North 23.0 mph - N/A   Overcast
2:54 PM 32.0 °F 18.9 °F 18.0 °F 56% 29.93 in 10.0 mi NNW 24.2 mph 34.5 mph N/A   Overcast
3:54 PM 34.0 °F 22.1 °F 15.1 °F 46% 29.94 in 10.0 mi NW 21.9 mph 33.4 mph N/A   Partly Cloudy
4:54 PM 32.0 °F 18.9 °F 14.0 °F 48% 29.97 in 10.0 mi NNW 24.2 mph 33.4 mph N/A   Clear
5:54 PM 30.0 °F 17.5 °F 15.1 °F 54% 30.00 in 10.0 mi NNW 19.6 mph 33.4 mph N/A   Mostly Cloudy
6:54 PM 28.9 °F 18.2 °F 15.1 °F 56% 30.04 in 10.0 mi NW 13.8 mph - N/A   Clear
7:54 PM 28.0 °F 20.0 °F 15.1 °F 58% 30.06 in 10.0 mi NW 8.1 mph - N/A   Clear
8:54 PM 26.1 °F 19.4 °F 15.1 °F 63% 30.07 in 10.0 mi WNW 5.8 mph - N/A   Clear
9:54 PM 25.0 °F 18.1 °F 15.1 °F 66% 30.09 in 10.0 mi West 5.8 mph - N/A   Clear
10:54 PM 23.0 °F 13.1 °F 15.1 °F 72% 30.12 in 10.0 mi WNW 9.2 mph - N/A   Clear
11:54 PM 24.1 °F 13.1 °F 15.1 °F 69% 30.14 in 10.0 mi NW 11.5 mph - N/A   Clear